Location: Newark
(54.0500°N, 12.8333°E)
Time: 00:18:51
(UTC+00:00)

SR - All Passes

Search period start: 19 January 2020 00:00
Search period end: 29 January 2020 00:00
Orbit: 574 x 882 km, 66.7° (Epoch: 18 January)

Date Brightness Start Highest point End Pass type
(mag) Time Alt. Az. Time Alt. Az. Time Alt. Az.
19 Jan - 00:47:01 10° WSW 00:52:46 49° NW 00:58:30 10° NE visible
19 Jan - 02:31:16 10° WNW 02:36:11 26° NNW 02:41:01 10° NE visible
19 Jan - 04:15:14 10° NW 04:20:06 25° NNE 04:24:46 10° ENE visible
19 Jan - 05:57:52 10° NW 06:03:32 49° NE 06:08:49 10° ESE visible
19 Jan - 07:40:15 10° NW 07:45:46 49° WSW 07:50:51 10° SSE daylight
19 Jan - 22:15:53 10° S 22:21:02 33° ESE 22:26:15 10° NE night (unlit)
19 Jan - 23:56:58 10° SW 00:02:52 71° NW 00:08:48 10° NE visible
20 Jan - 01:40:45 10° W 01:45:57 30° NNW 01:51:04 10° NE visible
20 Jan - 03:25:05 10° NW 03:29:48 24° N 03:34:21 10° NE visible
20 Jan - 05:08:07 10° NW 05:13:30 36° NNE 05:18:35 10° E visible
20 Jan - 06:50:25 10° NW 06:56:12 80° SW 07:01:32 10° SSE daylight
20 Jan - 08:33:42 10° WNW 08:37:25 18° WSW 08:40:58 10° SSW daylight
20 Jan - 21:27:39 10° SSE 21:31:46 20° ESE 21:35:56 10° ENE night (unlit)
20 Jan - 23:07:13 10° SSW 23:13:07 79° SE 23:19:04 10° NE night (unlit)
21 Jan - 00:50:17 10° W 00:55:48 38° NNW 01:01:16 10° NE visible
21 Jan - 02:34:44 10° WNW 02:39:28 24° N 02:44:05 10° NE visible
21 Jan - 04:18:16 10° NW 04:23:20 29° NNE 04:28:10 10° E visible
21 Jan - 06:00:40 10° NW 06:06:28 68° NE 06:11:49 10° SE visible
21 Jan - 07:43:18 10° NW 07:48:12 31° WSW 07:52:48 10° S daylight
21 Jan - 20:40:57 10° ESE 20:42:40 11° E 20:44:24 10° E night (unlit)
21 Jan - 22:17:52 10° SSW 22:23:32 51° ESE 22:29:15 10° NE night (unlit)
22 Jan - 00:00:01 10° WSW 00:05:47 51° NW 00:11:32 10° NE visible
22 Jan - 01:44:15 10° WNW 01:49:11 26° NNW 01:54:01 10° NE visible
22 Jan - 03:28:16 10° NW 03:33:05 25° N 03:37:43 10° ENE visible
22 Jan - 05:10:56 10° NW 05:16:33 47° NE 05:21:47 10° ESE visible
22 Jan - 06:53:17 10° NW 06:58:49 51° WSW 07:03:55 10° SSE daylight
22 Jan - 08:38:39 10° W 08:39:34 10° W 08:40:28 10° WSW daylight
22 Jan - 21:29:01 10° S 21:34:06 31° ESE 21:39:15 10° NE night (unlit)
22 Jan - 23:09:58 10° SW 23:15:54 73° NW 23:21:50 10° NE night (unlit)
23 Jan - 00:53:44 10° W 00:58:56 31° NNW 01:04:05 10° NE visible
23 Jan - 02:38:05 10° NW 02:42:47 23° N 02:47:19 10° NE visible
23 Jan - 04:21:10 10° NW 04:26:30 35° NNE 04:31:32 10° E visible
23 Jan - 06:03:28 10° NW 06:09:14 83° SW 06:14:33 10° SE visible
23 Jan - 07:46:40 10° WNW 07:50:30 19° WSW 07:54:09 10° SSW daylight
23 Jan - 20:40:51 10° SSE 20:44:52 19° ESE 20:48:54 10° ENE night (unlit)
23 Jan - 22:20:16 10° SSW 22:26:10 76° SE 22:32:06 10° NE night (unlit)
24 Jan - 00:03:16 10° W 00:08:49 39° NNW 00:14:17 10° NE visible
24 Jan - 01:47:43 10° WNW 01:52:28 24° N 01:57:04 10° NE visible
24 Jan - 03:31:18 10° NW 03:36:19 28° NNE 03:41:07 10° ENE visible
24 Jan - 05:13:43 10° NW 05:19:29 66° NE 05:24:48 10° SE visible
24 Jan - 06:56:19 10° NW 07:01:16 32° WSW 07:05:53 10° S daylight
24 Jan - 19:54:32 10° ESE 19:55:46 11° E 19:57:00 10° E night (unlit)
24 Jan - 21:30:57 10° SSW 21:36:36 49° ESE 21:42:17 10° NE night (unlit)
24 Jan - 23:13:01 10° WSW 23:18:48 53° NW 23:24:34 10° NE night (unlit)
25 Jan - 00:57:14 10° WNW 01:02:10 26° NNW 01:07:00 10° NE visible
25 Jan - 02:41:17 10° NW 02:46:04 25° N 02:50:40 10° ENE visible
25 Jan - 04:23:59 10° NW 04:29:34 46° NE 04:34:45 10° ESE visible
25 Jan - 06:06:20 10° NW 06:11:52 54° WSW 06:16:57 10° SSE visible
25 Jan - 07:51:15 10° W 07:52:39 11° W 07:54:02 10° WSW daylight
25 Jan - 20:42:09 10° S 20:47:11 30° ESE 20:52:16 10° NE night (unlit)
25 Jan - 22:22:59 10° SW 22:28:56 76° NW 22:34:52 10° NE night (unlit)
26 Jan - 00:06:42 10° W 00:11:57 31° NNW 00:17:06 10° NE visible
26 Jan - 01:51:05 10° NW 01:55:46 23° N 02:00:16 10° NE visible
26 Jan - 03:34:12 10° NW 03:39:30 34° NNE 03:44:29 10° E visible
26 Jan - 05:16:31 10° NW 05:22:16 86° SW 05:27:34 10° SE visible
26 Jan - 06:59:39 10° WNW 07:03:35 20° WSW 07:07:18 10° SSW daylight
26 Jan - 19:54:05 10° SSE 19:57:57 18° ESE 20:01:50 10° ENE night (unlit)
26 Jan - 21:33:20 10° SSW 21:39:13 73° SE 21:45:08 10° NE night (unlit)
26 Jan - 23:16:16 10° W 23:21:50 40° NNW 23:27:20 10° NE night (unlit)
27 Jan - 01:00:43 10° WNW 01:05:27 24° N 01:10:03 10° NE visible
27 Jan - 02:44:20 10° NW 02:49:19 28° NNE 02:54:04 10° ENE visible
27 Jan - 04:26:47 10° NW 04:32:30 63° NE 04:37:47 10° SE visible
27 Jan - 06:09:20 10° NW 06:14:21 34° WSW 06:18:59 10° S visible
27 Jan - 19:08:52 10° E 19:08:52 10° E 19:08:53 10° E night (unlit)
27 Jan - 20:44:04 10° S 20:49:40 47° ESE 20:55:18 10° NE night (unlit)
27 Jan - 22:26:00 10° WSW 22:31:50 54° NW 22:37:36 10° NE night (unlit)
28 Jan - 00:10:11 10° WNW 00:15:09 27° NNW 00:20:00 10° NE visible
28 Jan - 01:54:19 10° NW 01:59:04 24° N 02:03:36 10° ENE visible
28 Jan - 03:37:02 10° NW 03:42:34 44° NE 03:47:43 10° ESE visible
28 Jan - 05:19:22 10° NW 05:24:55 56° WSW 05:30:00 10° SSE visible
28 Jan - 07:03:59 10° W 07:05:44 12° W 07:07:28 10° WSW daylight
28 Jan - 19:55:18 10° S 20:00:16 29° ESE 20:05:16 10° NE night (unlit)
28 Jan - 21:36:01 10° SW 21:41:58 78° NW 21:47:54 10° NE night (unlit)
28 Jan - 23:19:40 10° W 23:24:56 32° NNW 23:30:07 10° NE night (unlit)
